CAPE
121 180 245 185 107 128 176 383 491 745 876 937 1216 1501 1552 1626 1055 135 0 0 0 0 0 0 0 0 0 0 0 0 0 0 0
74 145 267 376 228 200 240 394 596 805 1039 1119 1219 1417 1544 851 399 0 0 0 0 0 0 0 0 0 0 0 0 0 0 0 0
39 82 297 333 450 435 411 461 690 887 1085 1240 1246 1149 839 515 59 0 0 0 0 0 0 0 0 0 0 0 0 0 0 0 0
2 17 130 224 595 707 634 584 697 949 1172 1331 1278 864 354 164 3 0 0 0 0 0 0 0 0 0 0 0 0 0 0 0 0
0 2 90 127 562 773 809 714 738 990 1219 1379 1439 838 179 29 0 0 0 0 0 0 0 0 0 0 0 0 0 0 0 0 0
0 2 31 79 272 651 714 651 875 1045 1244 1308 1399 826 46 6 0 1 1 0 0 0 0 0 0 0 0 0 0 0 0 0 0
0 0 8 68 96 263 422 395 616 986 1199 1213 1103 462 41 18 6 11 23 0 0 0 0 0 0 0 0 0 0 0 0 0 0
0 0 0 14 95 107 159 221 298 628 887 1032 829 413 143 111 68 46 3 9 0 0 0 0 0 0 0 0 0 0 0 0 0
0 0 0 0 10 52 83 97 126 527 794 921 854 559 374 305 127 39 0 22 141 0 0 0 0 0 0 0 0 0 0 18 25
0 0 0 0 0 0 0 0 49 403 699 839 818 708 678 350 8 10 0 0 2 3 7 0 0 0 0 2 21 0 4 4 82
0 0 0 0 0 0 0 0 50 294 556 794 870 814 747 141 20 0 0 0 0 0 0 0 0 0 11 13 26 10 4 6 16
0 0 5 35 0 0 1 56 154 370 572 798 805 828 513 237 87 85 99 2 0 0 0 0 12 47 77 64 93 68 28 1 7
0 0 0 0 5 13 174 249 403 448 507 691 739 608 495 356 104 0 0 18 11 0 0 4 27 43 15 17 25 22 0 0 8
0 29 113 124 376 512 378 289 391 426 365 577 550 365 383 535 326 163 29 0 0 0 17 28 55 33 0 18 66 63 0 0 0
4 32 117 239 384 544 492 280 461 302 471 274 298 270 206 96 80 122 0 0 0 0 0 0 0 13 0 0 0 0 0 0 0
103 160 264 524 678 582 233 137 188 235 51 165 126 1 0 6 0 0 0 0 0 0 0 0 29 59 81 114 1 0 0 0 0
173 184 248 380 446 291 39 25 5 0 51 60 0 0 0 0 0 0 0 0 0 0 0 0 10 54 63 2 0 0 0 0 0
279 133 188 248 231 112 49 22 1 0 18 0 0 0 0 0 0 0 0 7 0 0 0 3 26 22 0 0 0 0 0 0 0
260 254 239 163 80 155 20 0 0 0 0 0 0 1 1 0 0 0 0 2 2 0 0 0 0 0 0 0 0 0 0 0 0
108 233 331 182 31 1 0 0 0 0 0 0 0 3 0 0 0 0 0 2 1 0 0 0 0 0 0 0 0 0 0 0 0
CIN
-414 -405 -463 -444 -468 -429 -395 -408 -390 -354 -338 -316 -307 -232 -205 -179 -233 -422 -0 -0 -0 -0 -0 -0 -0 -0 -0 -0 -0 -0 -0 -0 -0
-490 -484 -474 -471 -453 -453 -424 -378 -408 -359 -328 -319 -328 -276 -220 -334 -403 -0 -0 -0 -0 -0 -0 -0 -0 -0 -0 -0 -0 -0 -0 -0 -0
-536 -529 -495 -506 -467 -429 -419 -392 -365 -347 -324 -330 -354 -346 -396 -446 -604 -0 -0 -0 -0 -0 -0 -0 -0 -0 -0 -0 -0 -0 -0 -0 -0
-403 -570 -552 -589 -521 -473 -447 -399 -350 -362 -349 -338 -361 -432 -542 -600 -799 -0 -0 -0 -0 -0 -0 -0 -0 -0 -0 -0 -0 -0 -0 -0 -0
-0 -591 -581 -650 -552 -476 -451 -427 -361 -376 -386 -348 -361 -462 -620 -713 -38 -0 -0 -0 -0 -0 -0 -0 -0 -0 -0 -0 -0 -0 -0 -0 -0
-0 -430 -762 -693 -651 -546 -525 -547 -464 -403 -391 -408 -388 -459 -754 -706 -80 -689 -101 -0 -0 -0 -0 -0 -0 -0 -0 -0 -0 -0 -0 -0 -0
-0 -0 -512 -800 -706 -663 -622 -654 -627 -537 -465 -439 -438 -564 -765 -777 -840 -801 -870 -108 -19 -0 -0 -0 -0 -0 -0 -0 -0 -0 -0 -0 -0
-0 -0 -0 -856 -728 -756 -747 -709 -766 -650 -535 -491 -533 -612 -714 -711 -777 -686 -376 -375 -0 -0 -0 -0 -0 -0 -0 -0 -0 -0 -0 -0 -0
-0 -0 -0 -0 -834 -824 -785 -754 -861 -698 -614 -498 -537 -583 -638 -598 -572 -575 -2 -90 -103 -0 -0 -0 -0 -0 -0 -0 -0 -0 -0 -181 -150
-0 -0 -0 -0 -0 -0 -0 -0 -863 -724 -616 -498 -495 -505 -475 -492 -661 -541 -0 -100 -244 -183 -444 -0 -0 -0 -0 -256 -274 -0 -199 -162 -200
-0 -0 -0 -0 -0 -0 -0 -0 -790 -751 -670 -544 -494 -469 -380 -554 -625 -0 -0 -0 -0 -0 -0 -0 -0 -160 -330 -332 -306 -343 -156 -202 -196
-0 -0 -839 -740 -0 -0 -140 -757 -772 -710 -654 -525 -462 -400 -454 -521 -530 -478 -393 -124 -31 -0 -0 -90 -390 -335 -315 -307 -287 -258 -265 -271 -214
-0 -0 -0 -0 -503 -849 -615 -725 -743 -681 -600 -448 -409 -444 -450 -439 -475 -0 -15 -394 -265 -0 -129 -265 -205 -203 -234 -200 -117 -251 -22 -0 -269
-0 -538 -690 -710 -561 -485 -602 -787 -728 -635 -665 -520 -448 -512 -425 -305 -321 -287 -163 -0 -0 -0 -257 -212 -217 -143 -0 -347 -133 -52 -0 -0 -0
-809 -717 -653 -577 -463 -442 -625 -731 -613 -684 -633 -582 -615 -467 -380 -402 -418 -291 -0 -0 -0 -0 -0 -0 -0 -281 -0 -0 -8 -0 -0 -0 -0
-752 -708 -668 -583 -452 -513 -736 -802 -632 -698 -752 -663 -543 -65 -164 -186 -0 -0 -0 -0 -0 -0 -0 -0 -313 -230 -204 -132 -0 -0 -0 -0 -0
-637 -734 -681 -654 -620 -652 -770 -897 -707 -0 -674 -656 -107 -0 -0 -0 -0 -0 -0 -0 -0 -0 -0 -0 -232 -117 -142 -36 -0 -0 -0 -0 -0
-609 -747 -717 -700 -672 -693 -764 -784 -130 -0 -651 -0 -0 -0 -0 -0 -0 -0 -0 -150 -10 -28 -0 -102 -94 -180 -0 -0 -0 -0 -0 -0 -0
-571 -578 -619 -635 -658 -587 -716 -0 -0 -0 -0 -0 -0 -290 -248 -0 -0 -0 -0 -0 -0 -0 -0 -0 -0 -0 -0 -0 -0 -0 -0 -0 -0
-559 -480 -429 -508 -612 -64 -0 -0 -0 -0 -0 -0 -0 -508 -0 -0 -0 -0 -0 -0 -0 -0 -0 -0 -0 -0 -0 -0 -0 -0 -0 -0 -0
Wind_Speed
15 18 17 20 19 17 16 16 15 14 14 14 12 12 12 11 10 7 6 6 4 5 4 4 5 5 5 5 5 4 3 2 3
18 20 20 20 18 18 17 17 18 17 15 14 12 13 10 10 9 8 8 7 6 5 4 4 6 6 6 5 5 5 3 2 3
19 18 17 18 18 19 18 20 18 17 17 17 13 13 12 11 11 10 9 8 8 8 7 6 6 6 5 5 5 5 4 3 3
19 17 17 17 20 21 21 20 17 17 15 16 14 14 13 12 11 11 9 10 10 9 7 7 7 7 7 6 6 5 4 4 5
8 12 16 17 18 18 17 18 17 18 16 15 16 13 12 13 12 12 12 11 10 8 9 6 7 7 6 6 6 5 5 5 4
10 11 10 11 12 15 16 17 17 16 15 18 15 13 13 12 13 13 14 11 10 9 8 8 7 7 7 7 7 6 6 5 6
10 12 12 12 11 15 16 16 16 16 17 15 13 13 14 14 16 17 14 9 8 9 8 7 8 7 7 7 6 7 6 6 5
8 9 10 14 16 13 9 9 10 12 13 12 14 15 15 18 18 11 5 7 6 4 7 9 8 7 7 6 6 5 6 6 6
11 12 16 13 10 8 10 11 11 11 12 13 12 15 17 10 8 11 12 4 8 7 9 9 10 8 7 7 5 8 10 8 6
16 16 14 12 12 11 9 9 8 11 11 7 9 11 9 8 12 12 13 12 13 14 10 9 11 8 8 9 8 6 8 9 5
12 9 8 7 6 5 6 6 7 7 8 9 11 11 9 12 14 14 14 13 11 12 6 9 6 8 9 8 6 7 9 9 5
5 4 4 4 5 3 5 7 7 7 7 9 10 10 11 13 15 16 13 12 13 12 3 2 3 2 4 6 8 11 11 4 5
9 9 6 8 8 4 3 3 7 7 6 8 10 11 12 13 13 10 10 7 6 4 4 4 3 4 3 2 13 9 8 7 3
8 9 9 6 7 6 2 3 5 8 9 12 10 12 10 9 6 7 5 6 5 6 7 5 6 6 3 8 5 17 11 9 4
11 10 9 7 6 5 5 6 7 7 4 5 12 11 8 6 7 5 6 10 7 6 7 7 6 4 2 3 7 6 7 10 5
7 8 7 5 5 5 6 6 3 6 5 10 12 12 10 9 7 8 6 6 6 4 5 4 4 4 4 4 3 3 5 8 8
5 5 5 3 7 8 3 6 4 4 6 11 12 12 10 9 9 9 7 5 4 3 2 3 2 5 6 3 3 3 3 3 2
4 5 6 6 4 6 8 7 8 8 10 12 12 11 9 8 7 11 9 7 4 4 4 0 3 5 3 4 5 4 5 5 3
5 5 2 5 5 4 5 6 7 9 11 13 15 11 8 6 5 5 4 4 2 12 7 1 2 7 2 2 4 9 6 3 5
5 5 4 2 3 2 3 3 5 2 3 3 3 5 7 6 6 6 7 6 6 5 5 13 8 6 10 7 9 9 8 7 6
Wind_Direction
200 200 196 196 193 191 191 194 201 198 200 207 192 191 195 193 186 187 192 181 181 180 182 191 171 178 181 200 190 201 198 216 230
199 198 197 194 190 191 193 198 201 199 199 207 193 193 190 187 182 177 187 186 181 182 177 181 181 184 189 207 214 222 211 226 240
206 203 195 193 190 192 197 202 203 201 205 203 195 192 191 188 186 183 182 170 191 183 184 187 184 187 202 216 224 222 212 243 256
200 195 192 190 193 197 199 202 200 202 203 199 196 193 189 180 182 183 175 181 190 184 176 184 186 187 199 212 228 230 223 240 255
185 183 191 192 193 195 199 204 203 203 201 201 205 197 188 188 178 180 183 190 186 176 186 178 186 192 201 211 220 228 224 239 245
176 184 179 185 186 195 198 202 205 207 201 207 200 189 183 182 180 185 189 188 181 179 182 183 190 195 201 209 214 216 223 223 239
181 189 178 181 188 199 202 198 199 203 207 204 194 184 184 188 186 192 194 176 200 172 184 182 198 197 206 213 215 216 224 222 234
161 178 179 194 201 204 192 192 199 206 206 194 185 187 191 200 199 188 136 152 232 188 186 202 205 200 213 222 217 232 227 232 238
199 196 204 201 200 185 189 195 196 194 198 197 187 196 205 197 142 140 123 82 227 241 208 200 203 205 207 219 230 229 237 238 241
206 210 196 186 190 194 193 192 173 193 196 166 182 200 195 143 136 147 143 174 214 234 211 206 209 191 204 226 229 212 252 245 240
206 169 174 177 170 184 195 168 184 172 165 166 179 186 162 151 155 159 174 178 188 234 222 213 184 203 212 219 228 192 243 250 249
134 111 97 152 165 174 136 177 178 170 146 154 164 175 166 164 158 180 189 196 195 228 199 160 190 273 220 214 243 204 216 214 252
81 85 70 64 45 61 47 191 158 146 128 152 176 176 176 169 162 187 200 188 202 140 133 162 177 236 171 340 303 282 273 247 212
78 83 78 83 85 93 128 131 144 153 160 183 168 158 167 178 142 157 144 126 133 130 126 140 177 183 192 99 327 281 270 218 187
83 82 68 75 108 137 158 144 150 187 173 149 135 136 142 144 123 122 126 132 138 154 168 197 164 176 134 218 226 255 244 187 169
67 89 104 110 103 147 89 59 235 123 189 143 126 122 132 133 145 142 141 142 175 179 186 224 157 219 209 216 170 207 111 105 123
54 43 51 96 89 71 117 135 147 162 150 114 121 128 139 136 145 140 147 171 170 183 200 153 167 220 224 173 170 195 124 115 106
45 33 20 39 105 160 136 144 143 150 131 129 123 133 144 154 157 151 168 165 183 203 97 268 190 227 162 173 209 206 162 172 192
16 25 68 60 35 63 138 148 156 159 163 156 157 163 152 135 155 158 139 125 87 47 37 302 169 272 138 84 126 133 153 219 244
20 18 28 99 180 203 154 180 184 126 57 76 119 130 126 159 155 159 161 163 169 156 45 64 60 123 116 114 129 96 80 87 88